Simultaneous Nadir Overpasses (SNOs) Predictions

Prediction of SNOs over PacNW region [( 10.00, 139.50) to ( 22.70, 165.60)] between NOAA-19 and NPP Satellites:

Table of predicted SNOs over PacNW region for the next 30.0 days since TLE Epoch: 6/11/2013
Index Date (NOAA-19) Time (NOAA-19) NOAA-19 Lat,Lon Date (NPP) Time (NPP) NPP Lat,Lon Distance(km) Time Diff (sec)
1 06/14/2013 02:37:31 14.29, 162.98 06/14/2013 02:39:55 13.36, 159.04 437.87 144
2 06/14/2013 15:14:05 16.69, 158.79 06/14/2013 15:12:22 17.34, 155.75 331.40 103
3 06/26/2013 14:45:30 14.07, 165.58 06/26/2013 14:46:39 18.42, 162.40 591.13 69
4 06/26/2013 16:25:07 22.60, 142.15 06/26/2013 16:26:42 23.46, 138.27 408.59 95
5 06/27/2013 03:41:40 22.69, 145.56 06/27/2013 03:39:26 22.08, 142.71 300.48 134
6 07/09/2013 03:10:39 16.92, 154.41 07/09/2013 03:12:17 16.06, 150.57 420.71 98
7 07/09/2013<
